60P/Tsuchinshan 2 (2018)

Japanese version
Home page
Updated on November 20, 2018

---------------------------------------------------------------------

* Profile

* Pictures

* Orbital Elements

Epoch 2018 Dec. 28.0 TT = JDT 2458480.5
T 2018 Dec. 11.23136 TT                                 Kobayashi
q   1.6226475            (2000.0)            P               Q
n   0.14986353     Peri.  216.55283     -0.55998588     -0.82611496
a   3.5102556      Node   267.58352     +0.77426041     -0.49481952
e   0.5377409      Incl.    3.60652     +0.29485018     -0.26960659
P   6.58
From 350 observations 1978 Dec. 1-2012 May 28, mean residual 0".8.
     Nongravitational parameters A1 = -0.03, A2 = +0.0005.

* Finding Charts

* Magnitudes Graph

        m1 = 7.5 + 5 log d + 30 log r(t - 10)

---------------------------------------------------------------------

The orbital elements are published on M.P.E.C. 2015-M77.
The charts are made with StellaNavigator Ver.10 (AstroArts).
The magnitudes graphs are made with Comet for Windows.

---------------------------------------------------------------------

Copyright(C) Seiichi Yoshida (comet@aerith.net). All rights reserved.